Regional Weather Roundup
Issued by NWS San Diego, CA

Home | Current Version | Previous Version | Text Only | Print | Product List | Glossary On
Versions: 1 2 3 4 5 6 7 8 9 10 11 12 13 14 15 16 17 18 19 20 21 22 23 24 25 26 27 28 29 30 31 32 33 34 35 36 37 38 39 40 41 42 43 44 45 46 47 48 49 50
000
ASUS46 KSGX 102211
RWRSGX

SAN DIEGO HOURLY WEATHER ROUNDUP
NATIONAL WEATHER SERVICE SAN DIEGO CA
200 PM PST WED FEB 10 2016

NOTE: "FAIR" INDICATES FEW OR NO CLOUDS BELOW 12,000 FEET WITH NO
SIGNIFICANT WEATHER AND/OR OBSTRUCTIONS TO VISIBILITY.

CAZ042-043-060-061-PZZ750-775-102300-

GREATER SAN DIEGO AREA

CITY           SKY/WX    TMP DP  RH WIND       PRES   REMARKS
LINDBERGH FLD  MOSUNNY   85  26  11 VRB7      30.08F
POINT LOMA       N/A     81  24  12 W12         N/A
NATIONAL CITY    N/A     75  43  31 SW1       30.08F
CHULA VISTA      N/A     78  39  24 W3        30.00F
IMPERIAL BEACH MOSUNNY   78  32  18 W7        30.08F
BROWN FIELD    SUNNY     80  31  16 W7        30.08F
MIRAMAR MCAS   MOSUNNY   90  20   7 SW7       30.08F
MONTGOMERY FLD SUNNY     86  26  11 W6        30.08F

$$

NORTH SAN DIEGO COUNTY

CITY           SKY/WX    TMP DP  RH WIND       PRES   REMARKS
CAMP PENDLETON MOSUNNY   80  33  18 SW7       30.07F
OCEANSIDE AP   MOSUNNY   80  30  16 W9        30.07F
OCEANSIDE HBR    N/A     73  47  39 W3        30.10F
VISTA            N/A     83  39  20 W2        30.07F
CARLSBAD       SUNNY     80  25  13 W7        30.08F
DEL MAR          N/A     79  50  36 CALM      30.10F
FALLBROOK        N/A     86  33  14 CALM      30.06F
ESCONDIDO        N/A     86  35  16 CALM      30.08F
SAN MARCOS       N/A     88  34  15 CALM      30.06F
POWAY            N/A     89  35  15 CALM      30.10F

$$

EAST SAN DIEGO COUNTY

CITY           SKY/WX    TMP DP  RH WIND       PRES   REMARKS
RAMONA         MOSUNNY   84  31  14 W3        30.12F
SANTEE LAKES     N/A     90  35  14 CALM      30.06F
LA MESA          N/A     86  29  13 SW5       30.01F
JAMUL            N/A     85  36  17 NW5       30.08F
DESCANSO N       N/A     80  25  13 CALM      30.00F
MT. LAGUNA OBS   N/A     64   7  10 E2        29.86F
CAMPO            N/A     75  23  14 E16       30.15F

$$

ORANGE COUNTY AND THE LOS ANGELES BASIN

CITY           SKY/WX    TMP DP  RH WIND       PRES   REMARKS
JOHN WAYNE AP  PTSUNNY   80  36  20 S9        30.07F
LAGUNA BEACH     N/A     77  40  26 SE3       30.04F
LAKE FOREST FR   N/A     90  29  11 CALM      29.95
HUNTINGTON BCH   N/A     76  55  48 S3        30.09F
FULLERTON      SUNNY     89  29  11 W3        30.05F
LONG BEACH     SUNNY     81  40  23 S7        30.07F
L.A. AP        MOSUNNY   76  44  32 W10       30.08F
L.A. DOWNTOWN  SUNNY     85  25  11 CALM      30.06F

$$

THE INLAND EMPIRE

CITY           SKY/WX    TMP DP  RH WIND       PRES   REMARKS
CORONA         SUNNY     89  25  10 VRB3      30.08F
CHINO          PTSUNNY   89  29  11 VRB7      30.09F
ONTARIO        MOSUNNY   85  22  10 CALM      30.09F
SAN BERNARDINO MOSUNNY   84  21  10 CALM      30.12
RIVERSIDE AP   MOSUNNY   88  20   8 VRB6      30.09F
MORENO VALLEY    N/A     86  31  13 SE1       28.23F
MARCH ARB      MOSUNNY   85  19   8 E9        30.12F
HORSETHIEF CYN   N/A     85  10   6 NW1       30.12F
PERRIS           N/A     85  21   9 SE2       30.14F
HEMET EAST       N/A     83  19   9 CALM      30.01F
FRENCH VALLEY  FAIR      82  23  11 CALM      30.11F
TEMECULA         N/A     83  31  15 CALM      30.04F

$$

SAN BERNARDINO AND RIVERSIDE COUNTY MOUNTAINS

CITY           SKY/WX    TMP DP  RH WIND       PRES   REMARKS
BIG BEAR AP    MOSUNNY   63  10  13 E5        30.39F
ANGELUS OAKS     N/A     67  30  25 CALM      30.13F
PINE COVE        N/A     66  24  20 W3        30.12F

$$

SOUTHERN DESERT INCLUDING THE COACHELLA VALLEY

CITY           SKY/WX    TMP DP  RH WIND       PRES   REMARKS
PALM SPRINGS   MOSUNNY   83  24  11 SE5       30.14F
THOUSAND PALMS   N/A     87  26  11 SE6       30.10F
PALM DESERT      N/A     85  34  16 E3        32.15S
THERMAL        MOSUNNY   86  26  11 E6        30.10F
BLYTHE         MOSUNNY   83  26  12 VRB3      30.14F
IMPERIAL AP    MOSUNNY   84  25  11 CALM      30.11F
EL CENTRO NAS  MOSUNNY   84  25  11 VRB3      30.13F
YUMA AZ        PTSUNNY   86  24  10 NW9       30.11F
MEXICALI       PTSUNNY   82  25  12 NW5       30.13F

$$

UPPER DESERT

CITY           SKY/WX    TMP DP  RH WIND       PRES   REMARKS
VICTORVILLE AP SUNNY     73  19  13 CALM      30.24F
HESPERIA         N/A     73  27  18 CALM      30.34F
APPLE VALLEY     N/A     76  21  12 CALM      30.19F
PALMDALE       SUNNY     71  25  17 VRB7      30.24F
LANCASTER      SUNNY     73  26  17 VRB3      30.23F
DAGGETT        SUNNY     74  23  15 NE9       30.21F
29 PALMS N     PTSUNNY   77  19  11 NE3       30.27F
NEEDLES        MOSUNNY   77  27  15 VRB7      30.18F

$$

REGIONAL REPORTS

CITY           SKY/WX    TMP DP  RH WIND       PRES   REMARKS
SANTA BARBARA  SUNNY     78  34  20 W7        30.09F
SANDBERG       SUNNY    N/A N/A N/A E15       30.30F
LAS VEGAS NV   MOSUNNY   69  24  18 NE5       30.20F
PHOENIX AZ     PTSUNNY   83  23  11 CALM      30.12F
TIJUANA        MOSUNNY   82  27  13 W9        30.11F
ENSENADA NW      N/A     77  32  19 CALM      30.05F

$$

OFFSHORE ISLANDS

CITY           SKY/WX    TMP DP  RH WIND       PRES   REMARKS
CATALINA ARPT  SUNNY     80  27  14 N5        30.15F
SAN CLEMENTE I MOSUNNY   72  48  42 SW7       30.10F
SAN NICOLAS IS MOSUNNY   73  44  35 N3        30.10F

$$

MARINE AND OFFSHORE BUOY REPORTS

STATION/POSITION SKY/WX   TEMP    WIND        PRES    SWELL
                          AIR SEA DIR/SP/G            HT/PER/DIR
                          (F)     (DEG/KT/KT) (MB)    (FT/S/D)
TANNER BANKS               61 61  300/  8/ 12 1019.2F   5/290/14
S CLEMENTE BASIN           63 63  280/  6/  8 1018.6F   3/280/13
SAN NICOLAS IS.               59                N/A     5/290/13
SO. S. ROSA ISLA           59 59              1018.8F
W. S. BARBARA CH           59 58  320/ 12/ 14 1019.0F   3/300/14
M. S. BARBARA CH           61 59  240/  6/  8 1019.8F
S. MONICA BASIN            66 63  250/  2/  2 1019.0F   3/260/13
S PEDRO CHANNEL               63                N/A     2/270/13
DANA POINT                    62                N/A     2/270/14
OCEANSIDE OFFSHR              62                N/A     2/260/13
TORREY PINES OTR              62                N/A     3/280/13
LA JOLLA 1                 75 60   50/  1/  2 1018.9F
SAN DIEGO BAY                 60              1019.4F
POINT LOMA SOUTH              63                N/A     3/260/12

$$




USA.gov is the U.S. government's official web portal to all federal, state and local government web resources and services.